Flag for Switzerland Weather past 2 weeks in Riehen, Basel-Stadt, Switzerland

Now
45 °F

Light rain. Overcast.


Feels Like: 40 °F
Forecast: 34 / 62 °F
Wind: 12 mph from West

Location: Bale-Mulhouse

Current Time: Apr 28, 2015 at 9:41:16 AM

Latest Report: Apr 28, 2015 at 9:00 AM


Visibility: 3 mi

Pressure: 30.00 "Hg

Humidity: 92%

Dew point: 43 °F

Location of RiehenLocation

Historic Weather in Riehen — Graph

°F

Riehen temperature yesterday

Maximum temperature yesterday: 69 °F (at 4:00 PM)
Minimum temperature yesterday: 52 °F (at 6:00 AM)
Average temperature yesterday: 59 °F

Past Weeks' High & Low Weather Summary

 TemperatureHumidityPressure
High79 °F (Apr 15, 4:00 PM)98% (Apr 26, 6:00 AM)30.49 "Hg (Apr 26, 6:00 AM)
Low32 °F (Apr 19, 7:00 AM)19% (Apr 24, 7:00 PM)29.47 "Hg (Apr 27, 4:00 PM)
Average56 °F64%30.06 "Hg
* Reported Apr 13 8:00 AM — Apr 28 8:00 AM, Riehen, Weather by CustomWeather, © 2015

Note: Actual official high and low records may vary slightly from our data, if they occured in-between our weather recording intervals... More about our weather records

Advertising

Riehen weather history for previous 24 hours

 ConditionsComfort  
Time TempWeatherWind HumidityBarometerVisibility
8:00 AM
Tue, Apr 28
46 °FLight rain. Overcast.12 mph91%29.96 "Hg3 mi
7:00 AM46 °FLight rain. Overcast.12 mph92%29.91 "Hg4 mi
6:00 AM46 °FLight rain. Low clouds.12 mph94%29.87 "Hg5 mi
5:00 AM47 °FLight rain. Low clouds.8 mph95%29.84 "Hg5 mi
4:00 AM47 °FHeavy rain. Low clouds.3 mph96%29.82 "Hg2 mi
3:00 AM47 °FLight rain. Low clouds.7 mph96%29.79 "Hg6 mi
2:00 AM49 °FHeavy rain. Low clouds.10 mph96%29.75 "Hg2 mi
1:00 AM49 °FHeavy rain. Low clouds.12 mph96%29.72 "Hg2 mi
12:00 AM51 °FRain. Low clouds.14 mph96%29.67 "Hg3 mi
10:00 PM
Mon, Apr 27
54 °FLight rain. Low clouds.13 mph94%29.61 "Hg4 mi
9:00 PM56 °FLight rain. Low clouds.10 mph95%29.58 "Hg5 mi
8:00 PM57 °FThundershowers. Overcast.14 mph91%29.55 "Hg4 mi
7:00 PM60 °FLight rain. Overcast.10 mph79%29.53 "Hg7 mi
6:00 PM62 °FThundershowers. Overcast.13 mph76%29.50 "Hg6 mi
5:00 PM65 °FOvercast.13 mph69%29.50 "Hg7 mi
4:00 PM69 °FOvercast.12 mph63%29.47 "Hg11 mi
3:00 PM68 °FPartly sunny.9 mph64%29.50 "Hg11 mi
2:00 PM66 °FPartly sunny.7 mph66%29.50 "Hg11 mi
1:00 PM64 °FOvercast.6 mph74%29.55 "Hg11 mi
12:00 PM62 °FOvercast.2 mph77%29.57 "Hg11 mi
11:00 AM60 °FOvercast.3 mph82%29.59 "Hg11 mi
10:00 AM58 °FOvercast.2 mph86%29.60 "Hg9 mi
9:00 AM56 °FOvercast.3 mph87%29.60 "Hg9 mi
Weather by CustomWeather, © 2015

See weather overviewHow to use our weather pages